Location: Nied?wied?
(53.3665°N, 14.8184°E)
Time: 23:33:20
(UTC+00:00)

Cosmos 2333 - Pass Details

Date: 03 March 2021
Orbit: 829 x 867 km, 70.9° (Epoch: 12 April)

Event Time Altitude Azimuth Distance (km) Brightness Sun altitude
Rises 18:32:26 0° 189° (S) 3,378 7.3 -17.1°
Reaches altitude 10° 18:34:55 10° 183° (S) 2,453 6.5 -17.4°
Maximum altitude 18:40:16 46° 111° (ESE) 1,121 4.4 -18.2°
Drops below altitude 10° 18:45:42 10° 40° (NE) 2,493 6.4 -19.0°
Sets 18:48:15 0° 35° (NE) 3,439 7.2 -19.4°
